Wind_Speed
1 1 3 4 6 7 8 11 13 13 13 14 14 14 15 14 14 14 14 15 14 13 12 12 11 10 10 10 9 9 9 9 8 8 7 7 6 6 5 4 3 3 2 1 0 1 2 2 3
1 1 2 4 5 6 7 10 12 13 12 13 14 14 14 14 14 13 13 14 13 13 12 12 11 11 10 10 9 9 8 8 8 7 7 6 5 5 4 4 3 3 2 1 0 1 2 3 3
1 0 2 3 4 5 7 8 10 11 11 11 12 13 13 13 13 13 13 13 13 12 12 12 12 11 9 9 8 8 8 8 7 7 7 5 5 4 4 4 3 3 2 2 1 1 2 3 3
3 2 1 1 3 4 5 7 8 9 9 11 12 12 13 13 13 13 12 12 12 12 12 12 12 11 9 8 8 7 8 8 8 7 6 6 5 4 4 4 3 3 3 2 2 2 2 2 3
5 4 3 1 2 3 4 5 6 7 9 10 11 12 12 12 12 12 11 12 12 12 12 12 12 11 9 7 7 7 7 8 8 7 6 6 5 4 4 4 3 3 3 3 3 3 3 3 3
6 5 4 3 1 1 2 4 5 6 7 9 10 10 11 11 11 11 10 11 11 11 11 12 12 11 10 8 7 7 7 6 7 6 6 6 5 4 4 4 4 4 4 4 4 4 4 4 3
7 6 6 4 3 1 1 2 4 5 7 8 9 9 9 10 10 10 10 10 11 11 10 11 11 11 10 8 7 7 6 7 7 7 6 6 5 5 5 5 5 5 5 5 5 4 3 3 3
8 7 6 6 4 2 1 1 3 3 6 7 8 9 9 9 9 10 10 10 10 10 10 10 10 10 9 8 8 7 7 7 7 6 6 7 7 6 5 6 6 6 6 5 5 4 4 4 4
10 9 7 6 4 3 3 2 3 4 5 7 8 8 9 9 9 9 9 9 10 10 10 10 9 9 9 8 8 8 8 8 7 6 7 7 7 7 6 6 7 6 6 6 5 5 5 5 5
12 10 9 7 6 4 4 4 4 4 5 6 7 8 9 9 8 9 9 10 10 10 10 10 9 9 9 8 8 8 8 8 8 7 7 7 7 7 7 7 7 7 7 6 6 6 6 6 6
14 11 10 9 8 7 6 5 4 4 5 6 7 8 8 8 7 8 8 10 10 11 10 10 10 9 9 9 8 8 8 8 8 7 7 7 7 7 8 8 8 8 7 7 7 8 8 7 7
15 12 12 10 9 8 8 6 4 4 5 6 7 7 8 8 7 7 8 9 10 10 10 10 10 10 9 9 9 8 8 8 8 8 7 8 8 8 8 8 8 8 8 8 8 8 8 9 9
15 14 14 12 11 10 9 8 7 5 5 6 6 7 8 8 7 7 8 9 10 10 10 10 10 10 10 10 10 10 9 9 9 9 8 9 9 9 9 8 8 8 8 9 9 9 10 10 9
17 16 15 13 12 11 10 9 8 7 7 6 6 7 8 7 7 7 8 9 9 10 10 11 11 10 10 10 10 11 10 10 10 10 10 9 10 10 10 9 9 10 10 10 9 10 10 10 10
18 17 16 15 13 12 11 10 10 10 8 8 8 8 9 8 7 7 8 9 9 10 10 12 12 11 11 11 12 12 12 12 12 11 11 10 10 10 10 10 10 10 10 10 10 10 11 11 11
19 18 17 16 15 13 13 11 10 11 10 9 10 9 10 9 9 9 10 10 11 11 12 13 13 13 13 14 14 14 14 13 12 12 12 11 11 11 11 10 10 10 11 11 11 11 11 11 11
21 19 19 17 16 16 15 12 10 11 10 10 11 11 11 11 11 10 10 11 11 12 13 14 14 14 15 14 14 14 14 14 13 12 12 12 12 12 12 11 12 12 12 12 12 13 13 13 13
22 20 20 19 18 18 16 14 12 11 12 12 12 12 12 12 12 11 11 12 13 14 14 15 15 15 15 15 14 14 14 14 14 14 14 13 13 13 13 13 13 13 13 13 13 13 14 14 14
22 22 21 20 19 19 18 17 15 14 14 14 13 13 13 12 13 12 12 13 14 15 15 16 17 16 16 15 15 15 15 14 14 14 14 14 14 14 14 14 14 14 14 14 14 14 14 15 14
22 22 22 21 21 20 19 18 17 16 16 15 15 14 14 13 14 14 15 15 15 15 16 16 18 16 16 17 17 16 16 16 16 15 15 16 16 15 15 14 14 14 14 14 15 14 14 14 15
22 22 22 21 21 21 21 20 19 18 17 17 16 15 14 13 14 15 16 16 16 17 17 17 18 17 17 17 17 17 17 17 17 17 17 17 16 16 15 16 15 15 15 15 15 15 15 16 16
22 22 23 22 22 22 21 21 20 19 19 18 17 17 16 16 16 16 17 16 16 16 18 19 19 18 18 17 18 18 18 18 18 18 18 18 17 16 17 17 17 16 16 15 16 16 16 17 18
22 23 23 22 23 23 22 23 21 21 20 18 18 18 17 16 16 16 16 16 16 16 18 19 19 19 19 18 19 19 19 19 19 19 19 19 19 18 18 19 19 18 17 18 18 17 17 18 18
23 23 23 23 23 24 23 23 22 21 20 19 19 18 17 17 17 17 17 17 17 18 18 18 19 20 20 19 20 20 20 20 20 20 20 20 20 20 20 20 20 20 19 19 18 18 19 19 19
22 22 23 22 23 24 23 24 24 22 21 20 19 19 18 18 18 18 18 18 18 19 20 20 21 21 21 21 21 21 21 21 21 21 21 21 21 21 21 21 20 20 20 21 21 21 20 20 20
20 21 22 22 22 22 23 24 23 22 21 21 20 20 19 20 20 20 19 20 20 20 21 22 22 23 23 23 24 24 23 22 22 22 22 22 22 22 22 21 21 21 22 22 23 22 22 22 21
20 19 20 21 22 23 23 22 22 22 21 21 21 20 20 21 21 20 20 20 21 22 23 24 25 25 25 25 25 24 24 23 23 23 23 22 22 22 22 23 22 23 23 23 23 23 24 23 23
19 18 19 20 22 23 23 22 20 19 20 20 21 21 21 21 20 20 20 21 23 23 24 25 26 26 27 26 26 26 24 24 24 24 23 22 22 23 23 23 24 24 24 24 24 24 24 24 24
19 19 19 21 22 23 23 22 19 19 19 20 20 21 21 21 20 20 22 23 24 24 24 25 26 28 28 27 27 27 26 25 24 24 23 23 23 23 23 24 24 25 25 25 25 25 26 25 25
20 20 21 22 23 23 24 22 19 19 20 20 20 21 21 22 22 23 24 24 24 25 25 26 28 27 27 27 27 27 26 25 25 25 24 24 24 24 24 25 25 25 25 26 25 25 26 25 25
Wind_Direction
94 66 53 57 55 61 58 56 54 58 52 49 48 45 41 38 35 33 30 27 24 25 29 32 35 39 43 45 46 48 49 45 43 44 43 45 48 53 57 62 64 60 60 70 167 233 234 230 230
157 72 47 54 61 61 60 62 58 56 51 46 44 42 39 36 34 31 29 26 26 27 28 29 31 35 38 40 41 43 42 37 37 38 37 38 40 40 41 46 48 44 36 26 323 255 247 246 241
228 14 32 47 74 66 62 61 57 54 50 43 40 38 34 32 28 25 25 24 24 23 26 28 29 31 34 35 39 38 37 34 33 35 33 30 29 27 24 20 19 15 8 345 313 285 270 262 254
245 267 314 42 73 75 66 57 59 54 50 40 34 35 31 27 23 21 20 20 20 21 24 27 26 25 26 30 34 35 35 33 31 29 24 20 18 13 9 359 355 353 347 328 308 294 279 268 257
242 254 267 306 40 63 62 59 53 50 48 39 37 34 27 23 19 17 17 17 16 19 21 24 25 23 25 26 26 31 31 25 24 21 17 10 4 354 346 343 342 339 329 323 312 299 291 280 269
247 262 267 289 315 45 72 66 50 44 41 39 36 28 23 20 14 14 16 14 11 12 17 21 23 23 26 27 23 27 26 17 13 11 9 3 356 341 329 326 324 323 320 320 312 302 294 286 276
248 264 269 275 296 303 53 58 49 48 40 34 28 20 15 13 10 11 12 12 9 8 11 15 19 24 29 30 23 17 10 1 0 1 355 349 342 328 317 319 320 317 314 311 299 292 281 283 279
246 259 270 278 288 290 325 49 20 33 34 26 20 14 7 7 9 11 10 10 9 9 11 14 18 23 26 25 19 13 8 0 357 354 346 345 341 332 319 314 313 310 307 305 296 280 271 273 278
247 252 262 270 272 286 295 325 355 6 16 18 17 12 9 5 7 9 9 8 9 11 13 13 18 21 21 18 15 9 3 356 353 348 339 339 342 339 328 316 312 311 305 302 291 277 266 267 266
244 248 251 256 267 277 287 312 345 351 355 359 5 7 6 4 4 9 12 10 9 9 10 9 16 19 17 13 7 1 356 352 350 347 340 338 337 333 327 322 316 311 304 296 283 264 261 265 265
244 241 244 250 260 271 274 290 318 341 344 339 343 355 3 358 359 1 7 6 4 5 6 6 10 11 9 5 360 353 349 345 342 340 333 330 330 325 320 319 314 312 302 290 281 264 259 266 272
242 240 243 249 257 267 277 281 292 311 326 328 339 346 351 348 349 350 357 359 1 1 2 3 2 359 355 351 349 343 339 335 333 333 328 322 321 319 314 311 306 306 302 291 277 266 263 267 272
239 240 243 248 254 260 270 283 291 296 303 311 321 328 333 335 340 347 349 354 354 357 358 356 354 350 347 343 341 337 334 331 327 326 322 320 318 313 309 308 305 300 294 290 285 278 273 268 269
239 240 242 245 249 254 266 279 282 286 290 300 304 310 316 322 329 335 340 345 346 348 349 347 343 341 337 336 336 332 328 325 320 318 317 314 312 311 307 302 304 301 295 289 285 287 280 275 270
239 240 240 242 243 249 261 272 277 278 280 286 292 299 302 307 314 319 327 334 337 340 339 339 334 329 328 330 327 327 326 322 317 314 312 309 307 306 305 300 300 299 295 292 286 282 279 278 277
240 239 238 241 241 245 254 263 275 280 277 281 284 290 296 300 306 309 317 326 328 331 332 331 327 322 320 318 319 318 318 316 312 308 304 302 300 299 297 296 297 297 293 289 284 277 277 276 275
238 239 237 239 243 244 248 254 264 277 278 278 281 285 289 293 298 300 306 312 314 317 323 324 321 318 314 311 311 310 308 309 307 304 300 295 293 292 292 293 296 295 290 286 284 280 278 276 273
237 238 237 238 242 244 248 254 257 265 272 274 275 280 287 291 291 292 296 300 305 309 315 316 312 309 309 307 306 304 303 307 307 304 303 297 293 289 289 290 291 287 285 284 284 282 279 276 273
235 237 240 240 242 245 248 251 254 260 265 266 268 272 280 286 288 291 296 295 299 305 307 309 308 306 304 303 305 305 305 306 308 309 307 304 296 293 290 290 290 288 284 282 282 283 282 279 276
235 238 240 241 243 246 248 249 253 259 264 265 268 273 280 287 293 294 297 298 300 303 305 306 311 306 305 303 302 304 306 306 304 305 305 301 297 295 294 291 291 287 284 282 282 282 282 280 277
237 239 241 242 244 248 249 248 251 257 260 263 267 272 278 286 290 291 292 293 297 303 304 305 306 307 303 301 302 303 307 303 302 302 302 303 301 300 297 291 289 289 287 283 280 278 280 281 280
239 241 241 243 244 247 249 251 252 255 257 263 270 274 279 280 284 287 291 288 293 299 304 306 306 306 300 300 302 303 304 304 304 303 301 300 299 296 293 291 289 286 288 286 283 280 278 280 280
239 240 241 242 244 246 249 253 253 256 259 264 271 277 280 279 283 286 290 289 291 297 301 306 308 307 302 300 300 301 301 302 302 301 299 298 297 296 293 290 288 285 286 285 284 280 280 280 279
238 238 240 241 243 246 248 251 255 257 260 264 270 274 278 280 282 283 285 287 287 293 298 303 305 303 299 297 297 297 299 299 298 298 297 295 295 293 291 288 285 283 282 281 280 280 278 279 278
237 238 239 241 245 250 250 251 257 262 264 266 269 273 275 279 282 284 287 284 286 291 296 302 302 302 300 296 296 297 297 296 296 295 295 295 294 295 291 285 284 283 280 280 280 279 280 278 277
240 241 242 247 251 253 253 256 261 265 268 270 271 275 276 277 280 284 287 290 290 293 297 298 299 300 301 299 296 294 296 297 297 296 294 293 293 292 290 286 284 282 280 280 281 281 279 277 276
241 243 245 247 251 254 256 259 262 264 269 273 275 276 277 279 280 283 288 290 292 295 297 297 297 298 299 298 295 293 295 296 296 295 294 293 293 291 289 285 283 282 282 280 279 279 279 277 276
245 246 246 247 251 256 259 261 263 265 268 272 276 277 279 282 284 286 289 291 293 295 297 296 295 295 297 296 293 292 292 293 293 293 293 292 292 291 288 284 283 282 281 279 280 279 278 277 274
246 248 249 251 255 258 261 265 268 270 270 273 276 278 279 282 286 287 290 291 294 295 294 295 297 296 296 295 293 292 292 292 292 292 291 290 290 289 288 284 282 281 280 279 278 278 276 275 273
249 250 253 255 260 261 264 267 271 272 272 274 277 279 281 284 286 287 289 290 291 292 293 295 296 297 296 295 294 292 292 292 292 291 291 290 289 289 287 285 282 281 280 279 277 276 275 274 273
Height
5897 5897 5898 5899 5899 5898 5896 5896 5894 5893 5893 5892 5891 5891 5890 5890 5890 5891 5887 5885 5884 5882 5881 5879 5878 5877 5876 5875 5875 5874 5874 5874 5874 5874 5874 5874 5874 5874 5874 5874 5875 5875 5876 5876 5877 5877 5877 5877 5878
5898 5898 5900 5900 5899 5898 5898 5896 5896 5895 5894 5893 5892 5892 5891 5890 5890 5889 5887 5886 5885 5883 5882 5880 5878 5877 5876 5875 5875 5875 5875 5875 5875 5875 5875 5874 5874 5875 5875 5875 5875 5875 5876 5876 5876 5877 5877 5877 5877
5898 5899 5900 5900 5899 5899 5899 5897 5897 5896 5895 5894 5893 5893 5892 5891 5890 5889 5888 5887 5886 5884 5882 5880 5879 5877 5876 5876 5875 5875 5876 5875 5875 5875 5875 5875 5875 5875 5875 5875 5875 5875 5876 5876 5876 5876 5876 5877 5877
5898 5900 5900 5900 5899 5899 5899 5898 5897 5897 5896 5895 5894 5894 5893 5893 5891 5890 5889 5888 5886 5885 5883 5881 5879 5877 5876 5876 5876 5876 5876 5876 5875 5875 5875 5875 5875 5875 5875 5875 5875 5875 5876 5876 5876 5876 5876 5876 5877
5899 5899 5900 5900 5900 5900 5899 5898 5898 5898 5897 5896 5895 5894 5894 5893 5892 5891 5889 5888 5887 5885 5883 5881 5879 5877 5876 5875 5875 5876 5876 5876 5876 5876 5876 5876 5875 5875 5875 5875 5875 5875 5875 5875 5875 5875 5876 5876 5876
5899 5899 5900 5900 5900 5900 5899 5898 5898 5898 5898 5897 5896 5895 5895 5894 5892 5891 5890 5889 5888 5886 5884 5882 5880 5878 5876 5875 5875 5876 5876 5876 5876 5876 5876 5876 5875 5875 5874 5874 5874 5874 5874 5874 5875 5875 5875 5875 5875
5899 5899 5899 5899 5899 5899 5899 5899 5899 5898 5898 5897 5896 5896 5895 5894 5893 5892 5891 5889 5888 5886 5885 5883 5881 5879 5877 5877 5876 5877 5877 5876 5876 5876 5875 5875 5875 5874 5874 5874 5874 5874 5874 5874 5874 5874 5874 5874 5875
5897 5899 5898 5898 5898 5899 5899 5899 5899 5898 5898 5897 5897 5896 5896 5895 5893 5892 5891 5890 5888 5887 5885 5883 5882 5880 5879 5878 5877 5877 5876 5876 5876 5876 5875 5875 5874 5873 5873 5873 5873 5873 5873 5873 5873 5873 5873 5873 5874
5896 5898 5897 5897 5897 5898 5898 5898 5898 5898 5898 5897 5897 5896 5896 5895 5894 5892 5891 5890 5889 5887 5886 5884 5883 5881 5880 5879 5878 5877 5877 5876 5875 5875 5874 5874 5873 5873 5872 5872 5872 5872 5872 5871 5871 5871 5872 5872 5872
5895 5896 5896 5896 5897 5897 5897 5897 5897 5897 5897 5897 5896 5896 5895 5894 5894 5893 5892 5890 5889 5887 5886 5885 5883 5882 5881 5879 5878 5877 5876 5876 5875 5874 5874 5873 5872 5872 5872 5871 5871 5870 5870 5870 5870 5870 5870 5871 5871
5892 5894 5894 5895 5895 5895 5896 5896 5896 5896 5896 5896 5896 5896 5895 5894 5893 5892 5891 5890 5889 5888 5886 5885 5883 5882 5881 5880 5878 5877 5876 5875 5874 5874 5873 5872 5872 5871 5870 5870 5870 5869 5869 5869 5868 5868 5868 5869 5869
5890 5892 5892 5893 5893 5894 5894 5894 5894 5894 5895 5895 5895 5895 5894 5894 5893 5892 5891 5890 5889 5887 5886 5884 5883 5882 5881 5879 5878 5877 5876 5875 5874 5873 5872 5871 5871 5870 5869 5869 5868 5868 5867 5867 5867 5867 5867 5867 5868
5888 5890 5890 5891 5891 5892 5892 5892 5892 5893 5893 5893 5893 5894 5893 5893 5892 5891 5890 5889 5888 5887 5885 5884 5883 5882 5880 5879 5878 5877 5875 5874 5873 5872 5871 5870 5869 5869 5868 5867 5866 5866 5865 5865 5865 5865 5865 5866 5866
5886 5887 5888 5889 5890 5890 5891 5891 5891 5892 5892 5892 5892 5893 5893 5892 5891 5890 5889 5888 5887 5886 5885 5884 5882 5881 5879 5878 5877 5876 5874 5873 5871 5870 5869 5868 5867 5867 5866 5866 5865 5864 5863 5863 5863 5863 5863 5863 5863
5883 5885 5886 5887 5888 5888 5889 5889 5890 5890 5890 5891 5891 5891 5891 5890 5890 5889 5888 5887 5886 5885 5884 5883 5882 5880 5878 5877 5875 5874 5873 5871 5870 5868 5867 5866 5865 5865 5864 5863 5863 5862 5861 5861 5861 5861 5861 5861 5861
5880 5882 5883 5884 5885 5885 5887 5888 5888 5888 5888 5889 5889 5889 5889 5889 5888 5888 5887 5886 5884 5883 5882 5881 5880 5879 5877 5875 5874 5872 5870 5869 5867 5866 5865 5864 5863 5863 5862 5861 5861 5860 5859 5859 5859 5859 5859 5859 5859
5876 5877 5879 5881 5881 5882 5883 5885 5886 5886 5886 5886 5887 5887 5887 5887 5887 5886 5885 5884 5883 5881 5880 5879 5878 5877 5875 5873 5871 5869 5868 5866 5865 5864 5862 5861 5861 5860 5859 5859 5858 5857 5857 5856 5856 5856 5856 5856 5856
5872 5873 5875 5877 5878 5879 5880 5882 5883 5883 5884 5884 5885 5885 5885 5885 5884 5883 5883 5882 5880 5879 5878 5876 5875 5873 5872 5870 5868 5867 5865 5863 5862 5861 5860 5859 5858 5857 5856 5856 5855 5855 5854 5854 5853 5853 5852 5852 5852
5868 5870 5872 5874 5874 5875 5877 5878 5880 5880 5881 5881 5882 5882 5882 5882 5881 5880 5880 5879 5877 5876 5874 5873 5872 5870 5868 5867 5865 5864 5862 5860 5859 5858 5856 5855 5854 5853 5853 5852 5852 5852 5851 5851 5850 5850 5849 5849 5849
5864 5866 5868 5870 5870 5872 5873 5875 5876 5877 5878 5878 5879 5879 5879 5879 5878 5878 5877 5875 5874 5872 5871 5870 5868 5866 5865 5864 5862 5861 5859 5858 5857 5855 5853 5852 5851 5850 5849 5849 5849 5848 5848 5848 5847 5847 5846 5846 5846
5860 5862 5864 5865 5866 5867 5869 5871 5872 5874 5874 5875 5875 5876 5876 5876 5875 5874 5873 5872 5871 5869 5868 5866 5864 5863 5861 5859 5858 5857 5856 5854 5853 5852 5851 5849 5848 5847 5846 5846 5845 5845 5844 5844 5843 5843 5842 5842 5842
5857 5859 5860 5861 5862 5863 5865 5866 5869 5869 5870 5872 5872 5872 5872 5872 5871 5870 5869 5868 5867 5865 5864 5862 5860 5859 5857 5856 5855 5853 5852 5851 5850 5848 5847 5845 5844 5843 5843 5842 5841 5841 5840 5840 5839 5839 5838 5838 5838
5853 5854 5855 5856 5858 5859 5860 5862 5865 5865 5866 5868 5868 5868 5868 5868 5867 5866 5865 5864 5863 5861 5860 5858 5856 5855 5853 5852 5851 5850 5848 5847 5846 5844 5843 5841 5840 5839 5838 5838 5837 5836 5836 5835 5835 5834 5834 5834 5833
5848 5850 5851 5852 5853 5855 5857 5858 5860 5861 5863 5864 5864 5864 5864 5864 5863 5862 5861 5860 5859 5857 5856 5854 5852 5851 5849 5848 5847 5846 5844 5843 5841 5840 5838 5837 5836 5834 5833 5832 5832 5831 5831 5830 5830 5829 5829 5829 5829
5844 5846 5848 5848 5849 5851 5853 5854 5855 5857 5858 5859 5859 5859 5859 5859 5858 5857 5856 5855 5854 5853 5851 5850 5848 5846 5845 5843 5842 5841 5839 5838 5836 5835 5833 5832 5831 5830 5828 5827 5827 5826 5825 5825 5825 5824 5824 5823 5823
5841 5843 5844 5845 5846 5848 5849 5849 5852 5852 5853 5854 5854 5855 5855 5855 5854 5853 5853 5852 5850 5848 5847 5845 5843 5842 5840 5839 5837 5835 5833 5832 5831 5830 5828 5827 5825 5824 5823 5822 5821 5820 5820 5819 5819 5818 5818 5818 5817
5837 5838 5840 5841 5842 5843 5844 5845 5847 5848 5849 5849 5850 5850 5850 5849 5849 5849 5848 5847 5845 5844 5842 5840 5839 5836 5835 5833 5831 5829 5827 5826 5825 5823 5822 5820 5819 5818 5817 5816 5815 5815 5814 5813 5812 5812 5812 5811 5811
5833 5834 5835 5836 5837 5838 5839 5841 5843 5844 5844 5845 5845 5845 5845 5844 5844 5843 5843 5842 5840 5839 5837 5835 5833 5831 5829 5827 5825 5823 5821 5820 5819 5817 5815 5814 5813 5811 5810 5810 5809 5808 5807 5807 5806 5805 5805 5805 5805
5829 5830 5831 5832 5833 5834 5835 5839 5839 5840 5840 5840 5840 5840 5840 5840 5839 5838 5838 5836 5835 5833 5832 5830 5828 5826 5823 5821 5819 5816 5814 5814 5812 5810 5809 5807 5806 5805 5804 5803 5802 5801 5800 5800 5799 5798 5798 5798 5798
5824 5826 5827 5829 5829 5830 5831 5835 5834 5835 5835 5835 5835 5835 5835 5835 5834 5833 5832 5831 5829 5828 5826 5824 5821 5819 5817 5814 5812 5810 5808 5807 5806 5804 5802 5801 5799 5798 5797 5796 5795 5794 5793 5792 5792 5791 5791 5790 5790